Home > Weather > Lemgo > Past weeks

Flag for Germany Past Weather in Lemgo, North Rhine-Westphalia, Germany — Yesterday and Last 2 Weeks

Now
70 °F

Broken clouds.


Feels Like: 70 °F
Forecast: 54 / 65 °F
Wind: 10 mph from Southwest

Location: Bueckeburg

Current Time: Jul 1, 2016 at 9:08:05 PM

Latest Report: Jul 1, 2016 at 8:20 PM


Visibility: N/A

Pressure: 29.86 "Hg

Humidity: 69%

Dew Point: 59 °F

Location of LemgoLocation

Past Weather in Lemgo — Graph

°F

Lemgo Temperature Yesterday

Maximum temperature yesterday: 68 °F (at 1:20 PM)
Minimum temperature yesterday: 61 °F (at 1:20 AM)
Average temperature yesterday: 64 °F

High & Low Weather Summary for the Past Weeks

 TemperatureHumidityPressure
High90 °F (Jun 23, 4:20 PM)100% (Jun 17, 5:20 AM)30.24 "Hg (Jun 17, 5:20 AM)
Low50 °F (Jun 20, 1:20 AM)41% (Jun 23, 5:20 PM)29.56 "Hg (Jun 17, 1:20 AM)
Average64 °F78%29.98 "Hg
* Reported Jun 16 7:20 PM — Jul 1 7:20 PM, Lemgo, Weather by CustomWeather, © 2016

Note: Actual official high and low records may vary slightly from our data, if they occured in-between our weather recording intervals... More about our weather records

Advertising

Lemgo Weather History for the Previous 24 Hours

Scroll right to see more
 ConditionsComfort  
Time TempWeatherWind HumidityBarometerVisibility
7:20 PM
Fri, Jul 1
72 °FScattered clouds.12 mph65%29.86 "HgN/A
6:20 PM72 °FPartly sunny.8 mph69%29.89 "HgN/A
5:20 PM72 °FBroken clouds.10 mph69%29.89 "HgN/A
4:20 PM72 °FPartly sunny.15 mph69%29.89 "HgN/A
3:20 PM72 °FPartly sunny.14 mph69%29.89 "HgN/A
2:20 PM70 °FPartly sunny.17 mph73%29.89 "HgN/A
1:20 PM72 °FBroken clouds.17 mph69%29.89 "HgN/A
12:20 PM72 °FBroken clouds.15 mph65%29.89 "HgN/A
11:20 AM70 °FBroken clouds.13 mph73%29.89 "HgN/A
10:20 AM70 °FBroken clouds.12 mph73%29.89 "HgN/A
9:20 AM66 °FPartly sunny.12 mph83%29.89 "HgN/A
8:20 AM66 °FBroken clouds.12 mph78%29.89 "HgN/A
7:20 AM64 °FPartly sunny.7 mph83%29.89 "HgN/A
6:20 AM64 °FPartly sunny.9 mph83%29.89 "HgN/A
5:20 AM63 °FPassing clouds.9 mph83%29.89 "HgN/A
4:20 AM63 °FPassing clouds.13 mph88%29.89 "HgN/A
3:20 AM64 °FPartly cloudy.12 mph83%29.89 "HgN/A
2:20 AM64 °FPassing clouds.10 mph83%29.89 "HgN/A
1:20 AM64 °FPassing clouds.12 mph83%29.89 "HgN/A
12:20 AM64 °FPassing clouds.8 mph88%29.89 "HgN/A
11:20 PM
Thu, Jun 30
66 °FPassing clouds.12 mph78%29.89 "HgN/A
10:20 PM66 °FPartly sunny.7 mph73%29.89 "HgN/A
9:20 PM66 °FBroken clouds.3 mph78%29.89 "HgN/A
Weather by CustomWeather, © 2016

See weather overviewHow to use our weather pages